TimeCDT,TemperatureF,Dew PointF,Humidity,Sea Level PressureIn,VisibilityMPH,Wind Direction,Wind SpeedMPH,Gust SpeedMPH,PrecipitationIn,Events,Conditions,WindDirDegrees,DateUTC
12:53 AM,27.0,21.0,78,30.27,10.0,South,5.8,-,N/A,,Clear,170,2012-10-07 05:53:00
1:53 AM,23.0,18.0,81,30.26,10.0,SSE,4.6,-,N/A,,Clear,160,2012-10-07 06:53:00
2:53 AM,21.9,17.1,82,30.24,10.0,South,5.8,-,N/A,,Clear,180,2012-10-07 07:53:00
3:53 AM,25.0,17.1,72,30.21,10.0,South,6.9,-,N/A,,Clear,180,2012-10-07 08:53:00
4:53 AM,23.0,16.0,74,30.19,10.0,South,6.9,-,N/A,,Clear,180,2012-10-07 09:53:00
6:53 AM,23.0,16.0,74,30.17,10.0,SSE,6.9,-,N/A,,Clear,160,2012-10-07 11:53:00
7:53 AM,23.0,18.0,81,30.15,10.0,SSE,6.9,-,N/A,,Clear,150,2012-10-07 12:53:00
8:53 AM,27.0,19.9,75,30.14,10.0,South,8.1,-,N/A,,Clear,170,2012-10-07 13:53:00
9:53 AM,36.0,23.0,59,30.12,10.0,SSW,12.7,-,N/A,,Clear,210,2012-10-07 14:53:00
10:53 AM,43.0,23.0,45,30.09,10.0,SW,11.5,-,N/A,,Clear,220,2012-10-07 15:53:00
11:53 AM,46.9,23.0,39,30.06,10.0,SSW,16.1,-,N/A,,Clear,210,2012-10-07 16:53:00
12:53 PM,51.1,18.0,27,30.03,10.0,SW,15.0,24.2,N/A,,Clear,220,2012-10-07 17:53:00
1:53 PM,52.0,17.1,25,30.00,10.0,WSW,19.6,29.9,N/A,,Clear,250,2012-10-07 18:53:00
2:53 PM,53.1,17.1,24,29.97,10.0,SW,16.1,23.0,N/A,,Mostly Cloudy,230,2012-10-07 19:53:00
3:53 PM,55.0,17.1,23,29.94,10.0,SW,17.3,23.0,N/A,,Partly Cloudy,230,2012-10-07 20:53:00
4:53 PM,54.0,18.0,24,29.92,10.0,WSW,15.0,23.0,N/A,,Clear,250,2012-10-07 21:53:00
5:53 PM,52.0,19.0,27,29.91,10.0,SW,8.1,-,N/A,,Clear,220,2012-10-07 22:53:00
6:53 PM,46.0,21.0,37,29.90,10.0,SW,6.9,-,N/A,,Clear,220,2012-10-07 23:53:00
7:53 PM,39.9,19.9,45,29.91,10.0,SW,8.1,-,N/A,,Partly Cloudy,230,2012-10-08 00:53:00
8:53 PM,37.9,19.9,48,29.91,10.0,SW,5.8,-,N/A,,Clear,220,2012-10-08 01:53:00
9:53 PM,34.0,21.9,61,29.89,10.0,SSW,5.8,-,N/A,,Clear,210,2012-10-08 02:53:00
10:53 PM,39.0,23.0,53,29.86,10.0,South,4.6,-,N/A,,Clear,180,2012-10-08 03:53:00